[[{"header":{"parameterUnit":"m.s-1","parameterCategory":1,"la1":30.2991,"la2":30.254,"lo1":-89.0895,"lo2":-89.0444,"dy":0.0017,"dx":0.0017,"nx":28,"ny":28,"refTime":"2024-08-03T09:00:00:Z","depth":0,"parameterNumber":2,"parameterNumberName":"U-component_of_WINDS"},"data":[0,0,0,0,0,0,0,0,0,0,0,0,0,0,0,0,0,0,0,0,0,0,0,0,0,0,0,0,0,0,0,0,0,0,0,0,0,0,0,0,0,0,0,0,0,0,0,0,0,0,0,0,0,0,0,0,0,0,2.8082,2.8083,0,2.8197,2.8199,2.82,2.814,2.8137,2.8134,2.8131,2.8254,2.826,2.8266,0,0,0,0,0,0,0,0,0,0,0,0,0,2.7815,2.782,2.8082,2.8083,2.8084,2.8197,2.8199,2.82,2.8141,2.8137,2.8133,2.813,2.8252,2.8259,2.8266,0,0,0,0,0,0,0,0,0,0,0,0,0,2.7931,2.7822,2.8081,2.8068,2.8068,2.8197,2.8199,2.8201,2.8141,2.8137,2.8132,2.8128,2.8249,2.8258,2.8268,2.8417,0,0,2.8296,2.83,0,0,0,0,0,0,0,0,2.7924,2.7941,2.8069,2.8069,2.8069,2.8149,2.8149,2.8273,2.8143,2.8114,2.8131,2.8125,2.8223,2.8234,2.8266,2.8423,2.8428,2.8296,2.8302,2.8306,2.8309,0,0,0,0,0,0,0,2.7916,2.7935,2.8127,2.8071,2.8071,2.8058,2.807,2.8173,2.8193,2.8116,2.8112,2.8126,2.8223,2.8257,2.8269,2.843,2.8296,2.8304,2.831,2.8314,2.8718,2.8723,0,0,0,0,0,0,2.7908,2.7929,2.8124,2.8131,2.7984,2.8067,2.808,2.8128,2.8192,2.8197,2.813,2.8123,2.8244,2.8258,2.8273,2.8454,2.8306,2.8315,2.832,2.8713,2.8719,2.8725,0,0,0,0,0,0,2.7903,2.7926,2.8119,2.8029,2.8052,2.8076,2.8132,2.8133,2.8168,2.8202,2.8206,2.8162,2.8241,2.826,2.8382,2.8457,2.8319,2.8327,2.8707,2.8715,2.8722,2.8816,0,0,0,0,0,0,2.7895,2.7924,2.798,2.803,2.8057,2.8225,2.8136,2.8139,2.8184,2.8175,2.8233,2.8238,2.8239,2.8369,2.8391,2.8468,2.8334,2.87,2.871,2.8719,2.8807,2.8826,2.8843,0,0,0,0,0,2.7886,2.8002,2.7983,2.8007,2.8127,2.8229,2.8245,2.8242,2.819,2.8247,2.8269,2.8236,2.8445,2.8381,2.8406,2.8487,2.8695,2.8707,2.8719,2.8798,2.8823,2.8843,0,0,0,0,0,0,2.7961,2.8009,2.7988,2.8124,2.8173,2.8219,2.8291,2.8267,2.8333,2.8323,2.8318,2.8331,2.8459,2.8485,2.8413,2.8636,2.8563,2.858,2.8615,2.8638,2.8656,2.8648,2.8342,0,0,0,0,0,2.7994,2.8071,2.8109,2.8225,2.8251,2.8267,2.8311,2.8305,2.8356,2.8377,2.8408,2.846,2.8538,2.8589,2.8662,2.881,2.8823,2.8878,2.8896,2.8911,2.8926,2.9009,2.9035,2.8763,2.8763,2.8763,0,0,2.8062,2.8097,2.8146,2.8241,2.8278,2.8361,2.8285,2.8374,2.8436,2.8391,2.8508,2.8533,2.8591,2.8728,2.8789,2.8753,2.9004,2.8926,2.8937,2.8945,2.9024,2.905,2.9073,2.8771,2.877,2.8768,0,0,2.8227,2.8261,2.8363,2.8402,2.8459,2.8469,2.8493,2.8544,2.8558,2.8675,2.8644,2.8718,2.8851,2.8895,2.8934,2.9119,2.9092,2.9143,2.9239,2.932,2.9342,2.9361,2.9429,2.9453,2.9158,2.9158,2.9158,0,2.8305,2.8426,2.8418,2.8511,2.8555,2.8517,2.8621,2.866,2.8739,2.8771,2.8729,2.8897,2.8933,2.908,2.9125,2.9158,2.9188,2.9137,2.9339,2.9358,2.9375,2.944,2.9466,2.9164,2.9163,2.9163,2.9162,0,2.852,2.8604,2.868,2.8756,2.8808,2.8906,2.8916,2.897,2.896,2.8975,2.9097,2.9139,2.9221,2.9255,2.9246,2.9403,2.9379,2.9338,2.9264,2.9407,2.9469,2.9493,2.9173,2.9171,2.9169,2.9167,0,0,2.8736,2.8808,2.8836,2.8871,2.8932,2.8998,2.9096,2.9175,2.9222,2.9278,2.9362,2.9476,2.9439,2.9485,2.948,2.9551,2.9697,2.9502,2.9503,2.9539,2.9875,2.9907,2.9936,2.9679,2.9684,2.9688,2.9871,0,2.8908,2.9077,2.9074,2.9232,2.9311,2.9277,2.9362,2.941,2.9428,2.9499,2.9519,2.9601,2.9545,2.9572,2.964,2.9665,2.9765,2.9651,2.976,2.9763,2.9747,2.9967,3.0,3.0171,2.9895,2.9899,2.9902,0,2.913,2.9193,2.9359,2.941,2.9443,2.952,2.9593,2.9661,2.9716,2.9724,2.9775,2.976,2.9862,2.9784,2.9926,2.9848,2.9893,2.9912,2.9918,2.9929,2.9842,2.9986,3.0225,3.0252,2.9939,2.9936,2.9933,0,2.9275,2.94,2.9516,2.9547,2.9609,2.9664,2.9693,2.9742,2.9791,2.9856,2.9888,2.9964,3.0007,3.0067,3.0074,3.0017,3.0218,3.014,3.023,3.023,3.0275,3.0272,3.0526,3.0301,3.03,3.03,3.0299,0,2.9467,2.9571,2.9582,2.9654,2.9769,2.9766,2.9881,2.9905,2.995,3.0027,3.0002,3.0076,3.0079,3.0156,3.0162,3.028,3.0299,3.031,3.0311,3.0313,3.0312,3.0343,3.0332,3.0306,3.0305,3.0304,3.0302,0,2.9648,2.966,2.9784,2.9832,2.9847,2.9931,2.9973,3.0042,3.0057,3.0156,3.0179,3.0204,3.0292,3.0305,3.0409,3.0413,3.0556,3.0543,3.0537,3.0536,3.0625,3.0618,3.091,3.0949,3.0696,3.0698,3.07,0,2.9771,2.985,2.9907,2.9956,2.9988,3.0067,3.0117,3.0117,3.017,3.0239,3.0301,3.0387,3.0455,3.0599,3.0628,3.0708,3.0698,3.0795,3.071,3.0711,3.0703,3.0699,3.0708,3.0812,3.0815,3.0817,3.0819,0,2.9989,2.9992,3.0063,3.0137,3.0196,3.0255,3.0311,3.0353,3.0361,3.0422,3.0512,3.0565,3.0671,3.0758,3.0837,3.0869,3.0847,3.0845,3.0871,3.0875,3.0869,3.0876,3.0584,3.0839,3.0837,3.0836,3.0834,3.0834,3.0147,3.0216,3.0267,3.0348,3.0389,3.0442,3.051,3.0534,3.0608,3.0694,3.069,3.079,3.0845,3.0949,3.0986,3.1066,3.1035,3.1071,3.108,3.109,3.11,3.0855,3.108,3.108,3.1079,3.1079,3.1078,0,3.0365,3.0397,3.0471,3.0549,3.0614,3.0585,3.0645,3.0702,3.0789,3.0842,3.091,3.1014,3.1099,3.1134,3.1217,3.1275,3.1267,3.1297,3.1293,3.1302,3.1122,3.1092,3.1302,3.1302,3.1302,3.1302,3.1302,3.1302,3.0487,3.0603,3.0611,3.0749,3.078,3.0876,3.0913,3.0963,3.1005,3.1122,3.1192,3.1213,3.126,3.1347,3.1424,3.1433,3.1466,3.1501,3.1505,3.1337,3.1314,3.1293,3.1265,3.1507,3.1508,3.1679,3.168,3.1681]},{"header":{"parameterUnit":"m.s-1","parameterCategory":1,"la1":30.2991,"la2":30.254,"lo1":-89.0895,"lo2":-89.0444,"dy":0.0017,"dx":0.0017,"nx":28,"ny":28,"refTime":"2024-08-03T09:00:00:Z","depth":0,"parameterNumber":3,"parameterNumberName":"V-component_of_WINDS"},"data":[0,0,0,0,0,0,0,0,0,0,0,0,0,0,0,0,0,0,0,0,0,0,0,0,0,0,0,0,0,0,0,0,0,0,0,0,0,0,0,0,0,0,0,0,0,0,0,0,0,0,0,0,0,0,0,0,0,0,-1.3412,-1.3412,0,-1.3429,-1.3429,-1.3429,-1.3437,-1.3437,-1.3437,-1.3437,-1.3453,-1.3454,-1.3454,0,0,0,0,0,0,0,0,0,0,0,0,0,-1.3383,-1.3383,-1.3412,-1.3412,-1.3412,-1.3429,-1.3429,-1.3429,-1.3437,-1.3437,-1.3437,-1.3437,-1.3453,-1.3454,-1.3454,0,0,0,0,0,0,0,0,0,0,0,0,0,-1.3397,-1.3384,-1.3412,-1.3418,-1.3419,-1.3429,-1.3429,-1.3429,-1.3437,-1.3437,-1.3437,-1.3437,-1.3453,-1.3454,-1.3454,-1.346,0,0,-1.3457,-1.3457,0,0,0,0,0,0,0,0,-1.3396,-1.3398,-1.3417,-1.3417,-1.3418,-1.3431,-1.3425,-1.344,-1.3437,-1.343,-1.3437,-1.3437,-1.3446,-1.3447,-1.345,-1.346,-1.3461,-1.3457,-1.3457,-1.3457,-1.3458,0,0,0,0,0,0,0,-1.3395,-1.3398,-1.3418,-1.3417,-1.3418,-1.3419,-1.3421,-1.3428,-1.3438,-1.343,-1.3431,-1.3433,-1.3446,-1.345,-1.3451,-1.3461,-1.3457,-1.3457,-1.3458,-1.3458,-1.3475,-1.3475,0,0,0,0,0,0,-1.3394,-1.3397,-1.3418,-1.3419,-1.3407,-1.342,-1.3422,-1.3427,-1.3438,-1.3439,-1.3433,-1.3433,-1.3449,-1.345,-1.3452,-1.3457,-1.3457,-1.3458,-1.3459,-1.3475,-1.3475,-1.3475,0,0,0,0,0,0,-1.3393,-1.3396,-1.3417,-1.3408,-1.3411,-1.342,-1.3426,-1.3427,-1.3431,-1.344,-1.3441,-1.3435,-1.3449,-1.3451,-1.3457,-1.3458,-1.3458,-1.3459,-1.3475,-1.3475,-1.3475,-1.347,0,0,0,0,0,0,-1.3392,-1.3395,-1.3398,-1.3408,-1.3411,-1.3423,-1.3426,-1.3427,-1.3432,-1.3432,-1.3442,-1.3444,-1.3449,-1.3456,-1.3458,-1.3459,-1.346,-1.3475,-1.3475,-1.3475,-1.347,-1.347,-1.3469,0,0,0,0,0,-1.3391,-1.3396,-1.3398,-1.34,-1.3415,-1.3423,-1.3425,-1.3431,-1.3432,-1.3434,-1.344,-1.3443,-1.3458,-1.3457,-1.3459,-1.346,-1.3475,-1.3475,-1.3475,-1.347,-1.347,-1.347,0,0,0,0,0,0,-1.3386,-1.3397,-1.34,-1.3408,-1.3415,-1.3425,-1.3428,-1.3431,-1.3437,-1.3438,-1.3445,-1.3447,-1.3453,-1.3457,-1.3456,-1.3465,-1.3466,-1.3467,-1.3462,-1.3462,-1.3462,-1.346,-1.346,0,0,0,0,0,-1.3385,-1.3392,-1.3401,-1.3408,-1.3411,-1.3419,-1.3423,-1.3427,-1.3434,-1.3436,-1.3443,-1.3449,-1.3455,-1.3459,-1.3465,-1.3471,-1.3472,-1.3472,-1.3472,-1.3472,-1.3472,-1.3475,-1.3474,-1.3475,-1.3475,-1.3475,0,0,-1.3385,-1.3392,-1.3396,-1.3407,-1.3412,-1.3418,-1.3421,-1.3427,-1.3431,-1.3437,-1.3444,-1.3449,-1.3456,-1.3462,-1.3465,-1.3466,-1.3472,-1.3472,-1.3472,-1.3472,-1.3475,-1.3475,-1.3474,-1.3475,-1.3475,-1.3475,0,0,-1.3387,-1.3393,-1.3399,-1.3404,-1.3412,-1.3417,-1.3418,-1.3428,-1.3431,-1.3438,-1.3442,-1.3447,-1.3457,-1.3462,-1.3465,-1.3468,-1.347,-1.3469,-1.3468,-1.347,-1.347,-1.347,-1.347,-1.347,-1.3469,-1.3469,-1.3469,0,-1.3385,-1.3394,-1.3401,-1.3407,-1.3411,-1.3416,-1.3421,-1.3426,-1.3436,-1.3438,-1.3439,-1.3451,-1.3457,-1.3463,-1.3464,-1.3467,-1.3468,-1.3468,-1.347,-1.347,-1.347,-1.347,-1.347,-1.3469,-1.3469,-1.3469,-1.3469,0,-1.3391,-1.3397,-1.3401,-1.341,-1.3414,-1.342,-1.3426,-1.343,-1.3433,-1.3438,-1.3444,-1.3451,-1.3457,-1.3459,-1.3463,-1.3466,-1.3466,-1.3468,-1.347,-1.3469,-1.3469,-1.347,-1.3469,-1.3469,-1.3469,-1.3469,0,0,-1.3391,-1.3403,-1.3404,-1.3407,-1.3416,-1.3421,-1.3426,-1.3433,-1.3435,-1.3442,-1.3445,-1.3453,-1.3455,-1.3459,-1.3463,-1.3465,-1.3465,-1.3466,-1.3467,-1.3465,-1.3468,-1.3466,-1.3466,-1.3467,-1.3467,-1.3467,-1.3467,0,-1.3394,-1.3403,-1.3409,-1.3416,-1.3421,-1.3426,-1.343,-1.3435,-1.3439,-1.3444,-1.3448,-1.3453,-1.3455,-1.3458,-1.346,-1.3465,-1.3466,-1.3465,-1.347,-1.347,-1.3468,-1.3467,-1.3465,-1.3465,-1.3468,-1.3468,-1.3468,0,-1.3399,-1.3404,-1.3412,-1.3419,-1.3421,-1.3425,-1.3431,-1.3436,-1.3441,-1.3444,-1.3448,-1.3452,-1.3456,-1.3457,-1.3463,-1.3462,-1.3465,-1.3467,-1.3467,-1.3468,-1.3469,-1.3467,-1.3466,-1.3465,-1.3468,-1.3468,-1.3468,0,-1.3397,-1.3406,-1.3412,-1.3415,-1.3424,-1.3426,-1.343,-1.3435,-1.3439,-1.3444,-1.3446,-1.3451,-1.3454,-1.3458,-1.3462,-1.3463,-1.3467,-1.3469,-1.3469,-1.3469,-1.347,-1.347,-1.3469,-1.3472,-1.3472,-1.3472,-1.3472,0,-1.3399,-1.3403,-1.3411,-1.3414,-1.3419,-1.3424,-1.3428,-1.3432,-1.3437,-1.3441,-1.3445,-1.3448,-1.3454,-1.3458,-1.3462,-1.3465,-1.3467,-1.3469,-1.3469,-1.3468,-1.3468,-1.347,-1.347,-1.3472,-1.3472,-1.3472,-1.3472,0,-1.3398,-1.3403,-1.3409,-1.3417,-1.3419,-1.3422,-1.3428,-1.3431,-1.3435,-1.3439,-1.344,-1.3446,-1.3451,-1.3456,-1.3462,-1.3464,-1.3467,-1.3469,-1.3466,-1.3466,-1.3466,-1.3466,-1.3466,-1.3466,-1.3469,-1.3469,-1.3469,0,-1.3399,-1.3402,-1.341,-1.3412,-1.3416,-1.342,-1.3424,-1.3429,-1.3432,-1.3438,-1.344,-1.3445,-1.3449,-1.3456,-1.346,-1.3465,-1.3466,-1.3466,-1.3467,-1.3465,-1.3465,-1.3465,-1.3465,-1.3465,-1.3465,-1.3465,-1.3465,0,-1.34,-1.3402,-1.3407,-1.3412,-1.3416,-1.342,-1.3425,-1.3426,-1.3432,-1.3435,-1.344,-1.3443,-1.3449,-1.3453,-1.3458,-1.3461,-1.3464,-1.3465,-1.3465,-1.3463,-1.3461,-1.3462,-1.3464,-1.3465,-1.3465,-1.3465,-1.3465,-1.3465,-1.34,-1.3402,-1.3408,-1.3412,-1.3416,-1.342,-1.3423,-1.3427,-1.3431,-1.3436,-1.3439,-1.3443,-1.3447,-1.3454,-1.3457,-1.346,-1.3461,-1.3461,-1.3461,-1.3461,-1.3461,-1.3461,-1.3461,-1.3461,-1.3461,-1.3461,-1.3461,0,-1.34,-1.3404,-1.3408,-1.3414,-1.3417,-1.3419,-1.3424,-1.3427,-1.343,-1.3435,-1.3438,-1.3443,-1.3447,-1.3451,-1.3455,-1.3457,-1.3458,-1.3458,-1.3458,-1.3458,-1.346,-1.3459,-1.3457,-1.3457,-1.3457,-1.3457,-1.3457,-1.3457,-1.3401,-1.3406,-1.3408,-1.3414,-1.3417,-1.3421,-1.3424,-1.3427,-1.343,-1.3435,-1.3438,-1.3441,-1.3445,-1.345,-1.3453,-1.3454,-1.3455,-1.3454,-1.3456,-1.3458,-1.3458,-1.3458,-1.3458,-1.3455,-1.3455,-1.3454,-1.3454,-1.3454]}]]